FFT1522 KSLC-KDEN

Flight info

Callsign FFT1522
Flight time 1h 7m
Altitude 37000
Route RUGGD3 PERTY KAMPR LONGZ4
Aircraft A320/M-SDE3FGHIRWY/LB1

Departure

Time 2026-05-06 01:56
Airport Salt Lake City International Airport (KSLC)

Arrival

Time 2026-05-06 03:03
Airport Denver International Airport (KDEN)
Time Latitude Longitude Altitude Speed Heading
2026-05-06 01:21 40.78929 -111.99002 4231 ft 0 kts 175°
2026-05-06 01:42 40.78930 -111.99002 4231 ft 0 kts 175°
2026-05-06 01:45 40.78954 -111.99007 4229 ft 4 kts 164°
2026-05-06 01:45 40.78979 -111.99020 4230 ft 4 kts 146°
2026-05-06 01:45 40.78998 -111.99043 4229 ft 4 kts 119°
2026-05-06 01:46 40.79005 -111.99073 4229 ft 2 kts 85°
2026-05-06 01:46 40.79005 -111.99074 4229 ft 0 kts 85°
2026-05-06 01:48 40.79005 -111.99073 4229 ft 1 kts 85°
2026-05-06 01:49 40.79010 -111.98999 4231 ft 13 kts 85°
2026-05-06 01:49 40.79049 -111.98952 4231 ft 7 kts
2026-05-06 01:49 40.79120 -111.98936 4230 ft 3 kts 44°
2026-05-06 01:50 40.79135 -111.98885 4231 ft 11 kts 87°
2026-05-06 01:50 40.79142 -111.98749 4231 ft 17 kts 84°
2026-05-06 01:50 40.79153 -111.98591 4231 ft 18 kts 85°
2026-05-06 01:50 40.79165 -111.98417 4231 ft 20 kts 85°
2026-05-06 01:51 40.79177 -111.98231 4231 ft 21 kts 85°
2026-05-06 01:51 40.79190 -111.98050 4231 ft 19 kts 85°
2026-05-06 01:51 40.79201 -111.97885 4231 ft 17 kts 85°
2026-05-06 01:51 40.79212 -111.97774 4231 ft 11 kts 66°
2026-05-06 01:52 40.79276 -111.97743 4231 ft 11 kts 357°
2026-05-06 01:52 40.79377 -111.97754 4231 ft 19 kts 355°
2026-05-06 01:52 40.79515 -111.97770 4230 ft 21 kts 355°
2026-05-06 01:52 40.79663 -111.97786 4230 ft 22 kts 355°
2026-05-06 01:53 40.79820 -111.97805 4231 ft 23 kts 355°
2026-05-06 01:53 40.79982 -111.97824 4231 ft 21 kts 355°
2026-05-06 01:53 40.80126 -111.97841 4231 ft 21 kts 355°
2026-05-06 01:53 40.80274 -111.97845 4231 ft 17 kts
2026-05-06 01:54 40.80383 -111.97820 4231 ft 16 kts
2026-05-06 01:54 40.80503 -111.97832 4231 ft 18 kts 355°
2026-05-06 01:54 40.80632 -111.97847 4231 ft 18 kts 355°
2026-05-06 01:54 40.80710 -111.97856 4230 ft 3 kts
2026-05-06 01:55 40.80719 -111.97853 4230 ft 0 kts 15°
2026-05-06 01:55 40.80746 -111.97805 4230 ft 11 kts 76°
2026-05-06 01:55 40.80713 -111.97714 4229 ft 11 kts 141°
2026-05-06 01:55 40.80640 -111.97686 4230 ft 12 kts 174°
2026-05-06 01:56 40.80432 -111.97662 4233 ft 64 kts 175°
2026-05-06 01:56 40.79754 -111.97585 4230 ft 129 kts 175°
2026-05-06 01:56 40.78702 -111.97463 4287 ft 172 kts 175°
2026-05-06 01:56 40.77510 -111.97321 4981 ft 173 kts 175°
2026-05-06 01:57 40.76307 -111.97280 5714 ft 174 kts 195°
2026-05-06 01:57 40.75281 -111.98123 6246 ft 185 kts 233°
2026-05-06 01:57 40.74836 -111.99787 6509 ft 207 kts 270°
2026-05-06 01:57 40.75254 -112.01677 6779 ft 227 kts 300°
2026-05-06 01:58 40.76170 -112.03513 7118 ft 252 kts 305°
2026-05-06 01:58 40.77216 -112.05435 7848 ft 262 kts 306°
2026-05-06 01:58 40.78295 -112.07401 8681 ft 268 kts 306°
2026-05-06 01:58 40.79397 -112.09406 9017 ft 270 kts 306°
2026-05-06 01:59 40.80502 -112.11416 9094 ft 270 kts 306°
2026-05-06 01:59 40.81605 -112.13419 9118 ft 270 kts 306°
2026-05-06 01:59 40.82711 -112.15427 9279 ft 273 kts 306°
2026-05-06 01:59 40.83831 -112.17458 10214 ft 274 kts 306°
2026-05-06 02:00 40.84955 -112.19499 11118 ft 276 kts 306°
2026-05-06 02:00 40.86094 -112.21566 11940 ft 280 kts 306°
2026-05-06 02:00 40.87253 -112.23654 12721 ft 286 kts 308°
2026-05-06 02:00 40.88807 -112.25437 12989 ft 310 kts 332°
2026-05-06 02:01 40.90943 -112.26179 13241 ft 333 kts
2026-05-06 02:01 40.93217 -112.25445 13738 ft 345 kts 28°
2026-05-06 02:01 40.95015 -112.23348 14383 ft 351 kts 56°
2026-05-06 02:01 40.95916 -112.20396 15019 ft 356 kts 82°
2026-05-06 02:02 40.96030 -112.17112 15731 ft 359 kts 92°
2026-05-06 02:02 40.95854 -112.13805 16443 ft 362 kts 96°
2026-05-06 02:02 40.95548 -112.10491 17119 ft 365 kts 97°
2026-05-06 02:02 40.95213 -112.07142 17765 ft 369 kts 97°
2026-05-06 02:03 40.94905 -112.03763 18396 ft 372 kts 96°
2026-05-06 02:03 40.94640 -112.00343 19010 ft 376 kts 95°
2026-05-06 02:03 40.94415 -111.96885 19615 ft 379 kts 95°
2026-05-06 02:03 40.94212 -111.93390 20196 ft 382 kts 94°
2026-05-06 02:04 40.94017 -111.89863 20760 ft 386 kts 94°
2026-05-06 02:04 40.93821 -111.86325 21304 ft 389 kts 94°
2026-05-06 02:04 40.93616 -111.82728 21781 ft 394 kts 94°
2026-05-06 02:04 40.93403 -111.79091 22241 ft 400 kts 94°
2026-05-06 02:05 40.93181 -111.75407 22766 ft 402 kts 95°
2026-05-06 02:05 40.92953 -111.71715 23280 ft 405 kts 95°
2026-05-06 02:05 40.92724 -111.68059 23746 ft 408 kts 95°
2026-05-06 02:05 40.92487 -111.64306 24244 ft 410 kts 95°
2026-05-06 02:06 40.92249 -111.60538 24710 ft 413 kts 95°
2026-05-06 02:06 40.92012 -111.56800 25158 ft 415 kts 95°
2026-05-06 02:06 40.91771 -111.52986 25572 ft 419 kts 95°
2026-05-06 02:06 40.91529 -111.49136 25964 ft 422 kts 95°
2026-05-06 02:07 40.91283 -111.45254 26375 ft 425 kts 95°
2026-05-06 02:07 40.91034 -111.41355 26798 ft 427 kts 95°
2026-05-06 02:07 40.90734 -111.37443 27237 ft 428 kts 97°
2026-05-06 02:07 40.90331 -111.33535 27599 ft 431 kts 98°
2026-05-06 02:08 40.89854 -111.29599 27956 ft 435 kts 99°
2026-05-06 02:08 40.89344 -111.25658 28322 ft 437 kts 99°
2026-05-06 02:08 40.88827 -111.21683 28688 ft 440 kts 99°
2026-05-06 02:08 40.88318 -111.17692 29048 ft 442 kts 99°
2026-05-06 02:09 40.87818 -111.13666 29359 ft 446 kts 99°
2026-05-06 02:09 40.87493 -111.10982 29546 ft 448 kts 99°
2026-05-06 02:09 40.87005 -111.06905 29857 ft 451 kts 99°
2026-05-06 02:09 40.86519 -111.02802 30152 ft 454 kts 99°
2026-05-06 02:10 40.86028 -110.98663 30420 ft 457 kts 99°
2026-05-06 02:10 40.85530 -110.94506 30717 ft 459 kts 99°
2026-05-06 02:10 40.85028 -110.90338 31025 ft 461 kts 99°
2026-05-06 02:10 40.84523 -110.86153 31308 ft 463 kts 99°
2026-05-06 02:11 40.84010 -110.81940 31634 ft 463 kts 99°
2026-05-06 02:11 40.83496 -110.77744 32040 ft 463 kts 99°
2026-05-06 02:11 40.82981 -110.73554 32385 ft 463 kts 99°
2026-05-06 02:11 40.82463 -110.69362 32770 ft 462 kts 99°
2026-05-06 02:12 40.81944 -110.65171 33114 ft 462 kts 99°
2026-05-06 02:12 40.81423 -110.60979 33429 ft 464 kts 99°
2026-05-06 02:12 40.80901 -110.56777 33806 ft 462 kts 99°
2026-05-06 02:12 40.80380 -110.52596 34164 ft 462 kts 99°
2026-05-06 02:13 40.79859 -110.48415 34534 ft 462 kts 99°
2026-05-06 02:13 40.79334 -110.44235 34880 ft 461 kts 99°
2026-05-06 02:13 40.78808 -110.40056 35192 ft 461 kts 99°
2026-05-06 02:13 40.78280 -110.35882 35469 ft 462 kts 99°
2026-05-06 02:14 40.77758 -110.31762 35813 ft 460 kts 99°
2026-05-06 02:14 40.77090 -110.26489 36252 ft 458 kts 99°
2026-05-06 02:14 40.76563 -110.22348 36516 ft 458 kts 99°
2026-05-06 02:14 40.76036 -110.18217 36837 ft 456 kts 99°
2026-05-06 02:15 40.75507 -110.14088 36983 ft 457 kts 99°
2026-05-06 02:15 40.74979 -110.10005 37011 ft 457 kts 99°
2026-05-06 02:15 40.73968 -110.01702 37009 ft 455 kts 97°
2026-05-06 02:16 40.73384 -109.93456 37009 ft 456 kts 94°
2026-05-06 02:16 40.72956 -109.85117 37009 ft 455 kts 94°
2026-05-06 02:17 40.72463 -109.76787 37011 ft 455 kts 95°
2026-05-06 02:17 40.71884 -109.68484 37019 ft 455 kts 95°
2026-05-06 02:18 40.71281 -109.60199 37025 ft 454 kts 95°
2026-05-06 02:18 40.70693 -109.51917 37033 ft 453 kts 95°
2026-05-06 02:19 40.70115 -109.43654 37037 ft 452 kts 95°
2026-05-06 02:19 40.69532 -109.35401 37032 ft 451 kts 95°
2026-05-06 02:20 40.68730 -109.24449 37030 ft 451 kts 95°
2026-05-06 02:21 40.68128 -109.16240 37032 ft 450 kts 95°
2026-05-06 02:21 40.67524 -109.08038 37028 ft 450 kts 95°
2026-05-06 02:22 40.66849 -108.98513 37028 ft 449 kts 95°
2026-05-06 02:22 40.66423 -108.91647 37026 ft 448 kts 95°
2026-05-06 02:23 40.65924 -108.83528 37026 ft 448 kts 95°
2026-05-06 02:23 40.65399 -108.75361 37027 ft 447 kts 95°
2026-05-06 02:24 40.64857 -108.67201 37025 ft 447 kts 95°
2026-05-06 02:24 40.64311 -108.59058 37022 ft 447 kts 95°
2026-05-06 02:25 40.63765 -108.50904 37020 ft 447 kts 95°
2026-05-06 02:25 40.63210 -108.42760 37019 ft 447 kts 95°
2026-05-06 02:26 40.62649 -108.34623 37021 ft 446 kts 95°
2026-05-06 02:26 40.62082 -108.26483 37020 ft 446 kts 95°
2026-05-06 02:27 40.61515 -108.18346 37014 ft 446 kts 95°
2026-05-06 02:27 40.60946 -108.10265 37017 ft 446 kts 95°
2026-05-06 02:28 40.60355 -108.02131 37017 ft 446 kts 95°
2026-05-06 02:28 40.59760 -107.94001 37016 ft 446 kts 95°
2026-05-06 02:29 40.59169 -107.85872 37012 ft 447 kts 95°
2026-05-06 02:29 40.58572 -107.77743 37012 ft 447 kts 95°
2026-05-06 02:30 40.57962 -107.69606 37012 ft 447 kts 96°
2026-05-06 02:30 40.57352 -107.61467 37012 ft 447 kts 95°
2026-05-06 02:31 40.56750 -107.53330 37014 ft 447 kts 96°
2026-05-06 02:31 40.56132 -107.45195 37017 ft 447 kts 96°
2026-05-06 02:32 40.55504 -107.37062 37018 ft 447 kts 96°
2026-05-06 02:32 40.54874 -107.28932 37015 ft 447 kts 96°
2026-05-06 02:33 40.54247 -107.20866 37012 ft 447 kts 96°
2026-05-06 02:33 40.54030 -107.18113 37013 ft 447 kts 96°
2026-05-06 02:34 40.52952 -107.04608 37009 ft 448 kts 96°
2026-05-06 02:34 40.52297 -106.96455 37011 ft 448 kts 96°
2026-05-06 02:35 40.51645 -106.88320 37016 ft 448 kts 96°
2026-05-06 02:35 40.50979 -106.80188 37012 ft 448 kts 96°
2026-05-06 02:35 40.50641 -106.76065 36780 ft 460 kts 96°
2026-05-06 02:36 40.50296 -106.71833 36244 ft 472 kts 96°
2026-05-06 02:36 40.49942 -106.67525 35564 ft 471 kts 96°
2026-05-06 02:36 40.49591 -106.63298 34667 ft 463 kts 96°
2026-05-06 02:36 40.49238 -106.59111 33545 ft 462 kts 96°
2026-05-06 02:37 40.48879 -106.54928 32904 ft 458 kts 96°
2026-05-06 02:37 40.48523 -106.50790 32300 ft 453 kts 96°
2026-05-06 02:37 40.48165 -106.46705 31666 ft 450 kts 97°
2026-05-06 02:37 40.47801 -106.42650 31164 ft 443 kts 97°
2026-05-06 02:38 40.47436 -106.38634 30445 ft 442 kts 97°
2026-05-06 02:38 40.47075 -106.34669 29943 ft 436 kts 97°
2026-05-06 02:38 40.46713 -106.30704 29225 ft 436 kts 97°
2026-05-06 02:38 40.46352 -106.26764 28649 ft 434 kts 97°
2026-05-06 02:39 40.45992 -106.22846 28065 ft 430 kts 97°
2026-05-06 02:39 40.45637 -106.18984 27498 ft 427 kts 97°
2026-05-06 02:39 40.45285 -106.15141 26935 ft 423 kts 97°
2026-05-06 02:39 40.44945 -106.11321 26651 ft 420 kts 96°
2026-05-06 02:40 40.44624 -106.07587 26355 ft 419 kts 96°
2026-05-06 02:40 40.44300 -106.03796 26041 ft 417 kts 96°
2026-05-06 02:40 40.43975 -106.00020 25742 ft 416 kts 96°
2026-05-06 02:40 40.43648 -105.96259 25438 ft 415 kts 96°
2026-05-06 02:41 40.43317 -105.92510 25134 ft 413 kts 96°
2026-05-06 02:41 40.42932 -105.88773 24797 ft 413 kts 99°
2026-05-06 02:41 40.42431 -105.85128 24401 ft 410 kts 101°
2026-05-06 02:41 40.41835 -105.81444 24018 ft 407 kts 102°
2026-05-06 02:42 40.41219 -105.77883 23642 ft 405 kts 103°
2026-05-06 02:42 40.40586 -105.74247 23255 ft 415 kts 103°
2026-05-06 02:42 40.39958 -105.70531 22869 ft 419 kts 102°
2026-05-06 02:42 40.39342 -105.66786 22474 ft 418 kts 102°
2026-05-06 02:43 40.38744 -105.63067 22084 ft 416 kts 102°
2026-05-06 02:43 40.38160 -105.59360 21589 ft 414 kts 102°
2026-05-06 02:43 40.37583 -105.55688 21054 ft 409 kts 102°
2026-05-06 02:43 40.37009 -105.52050 20535 ft 405 kts 102°
2026-05-06 02:44 40.35306 -105.41453 19399 ft 381 kts 102°
2026-05-06 02:44 40.34696 -105.38175 19034 ft 363 kts 110°
2026-05-06 02:45 40.33619 -105.35229 18733 ft 355 kts 123°
2026-05-06 02:45 40.32157 -105.32656 18451 ft 350 kts 128°
2026-05-06 02:45 40.30669 -105.30157 18200 ft 347 kts 128°
2026-05-06 02:45 40.29191 -105.27657 17950 ft 345 kts 128°
2026-05-06 02:46 40.27726 -105.25174 17699 ft 344 kts 128°
2026-05-06 02:46 40.26273 -105.22709 17451 ft 342 kts 128°
2026-05-06 02:46 40.24820 -105.20249 17199 ft 341 kts 128°
2026-05-06 02:46 40.23375 -105.17804 16949 ft 339 kts 128°
2026-05-06 02:47 40.21931 -105.15371 16699 ft 338 kts 128°
2026-05-06 02:47 40.20492 -105.12956 16449 ft 336 kts 128°
2026-05-06 02:47 40.19057 -105.10547 16198 ft 335 kts 128°
2026-05-06 02:47 40.17634 -105.08150 15948 ft 333 kts 128°
2026-05-06 02:48 40.16219 -105.05765 15698 ft 332 kts 128°
2026-05-06 02:48 40.14805 -105.03389 15447 ft 330 kts 129°
2026-05-06 02:48 40.13239 -105.01212 15196 ft 328 kts 136°
2026-05-06 02:48 40.11616 -104.99129 14946 ft 327 kts 136°
2026-05-06 02:49 40.10105 -104.97187 14712 ft 325 kts 136°
2026-05-06 02:49 40.08495 -104.95117 14462 ft 324 kts 136°
2026-05-06 02:49 40.06894 -104.93057 14211 ft 322 kts 136°
2026-05-06 02:49 40.05299 -104.91003 13960 ft 321 kts 136°
2026-05-06 02:50 40.03714 -104.88962 13710 ft 320 kts 136°
2026-05-06 02:50 40.02136 -104.86929 13460 ft 318 kts 136°
2026-05-06 02:50 40.00565 -104.84907 13210 ft 317 kts 136°
2026-05-06 02:50 39.98977 -104.82930 12958 ft 315 kts 141°
2026-05-06 02:51 39.97152 -104.81448 12710 ft 313 kts 156°
2026-05-06 02:51 39.95085 -104.80642 12460 ft 310 kts 172°
2026-05-06 02:51 39.92937 -104.80524 12211 ft 309 kts 182°
2026-05-06 02:51 39.90789 -104.80590 11960 ft 308 kts 181°
2026-05-06 02:52 39.88654 -104.80648 11710 ft 306 kts 181°
2026-05-06 02:52 39.86523 -104.80699 11397 ft 306 kts 181°
2026-05-06 02:52 39.84427 -104.80749 11240 ft 296 kts 181°
2026-05-06 02:52 39.82415 -104.80797 11168 ft 284 kts 181°
2026-05-06 02:53 39.80470 -104.80847 11051 ft 274 kts 181°
2026-05-06 02:53 39.78653 -104.80891 10971 ft 264 kts 181°
2026-05-06 02:53 39.76846 -104.80862 10901 ft 257 kts 179°
2026-05-06 02:53 39.75070 -104.80777 10844 ft 254 kts 178°
2026-05-06 02:54 39.73311 -104.80678 10789 ft 253 kts 178°
2026-05-06 02:54 39.71549 -104.80578 10738 ft 253 kts 178°
2026-05-06 02:54 39.69790 -104.80480 10682 ft 253 kts 178°
2026-05-06 02:54 39.68036 -104.80385 10496 ft 251 kts 178°
2026-05-06 02:55 39.66333 -104.80297 10185 ft 250 kts 178°
2026-05-06 02:55 39.64596 -104.80210 9881 ft 249 kts 178°
2026-05-06 02:55 39.62867 -104.80125 9581 ft 248 kts 178°
2026-05-06 02:55 39.61151 -104.80030 9283 ft 246 kts 175°
2026-05-06 02:56 39.59551 -104.79316 9023 ft 245 kts 144°
2026-05-06 02:56 39.58498 -104.77647 8950 ft 239 kts 112°
2026-05-06 02:56 39.58207 -104.75547 8959 ft 235 kts 89°
2026-05-06 02:56 39.58453 -104.73521 8983 ft 229 kts 72°
2026-05-06 02:57 39.59151 -104.71718 8971 ft 221 kts 54°
2026-05-06 02:57 39.60205 -104.70309 8962 ft 217 kts 37°
2026-05-06 02:57 39.61517 -104.69377 8963 ft 215 kts 19°
2026-05-06 02:57 39.62952 -104.68996 8961 ft 208 kts
2026-05-06 02:58 39.64385 -104.68974 8963 ft 204 kts 360°
2026-05-06 02:58 39.65777 -104.68958 8961 ft 196 kts 360°
2026-05-06 02:58 39.67124 -104.68943 8963 ft 193 kts 360°
2026-05-06 02:58 39.68454 -104.68927 8806 ft 186 kts 360°
2026-05-06 02:59 39.69702 -104.68913 8594 ft 174 kts 360°
2026-05-06 02:59 39.70870 -104.68899 8390 ft 163 kts 360°
2026-05-06 02:59 39.71989 -104.68886 8174 ft 159 kts 360°
2026-05-06 02:59 39.73087 -104.68873 7965 ft 157 kts 360°
2026-05-06 03:00 39.74172 -104.68861 7758 ft 156 kts 360°
2026-05-06 03:00 39.75253 -104.68848 7552 ft 155 kts 360°
2026-05-06 03:00 39.76330 -104.68836 7346 ft 154 kts 360°
2026-05-06 03:00 39.77398 -104.68824 7142 ft 154 kts 360°
2026-05-06 03:01 39.78466 -104.68811 6938 ft 153 kts 360°
2026-05-06 03:01 39.79530 -104.68799 6734 ft 153 kts 360°
2026-05-06 03:01 39.80589 -104.68786 6532 ft 152 kts 360°
2026-05-06 03:01 39.81643 -104.68774 6331 ft 151 kts 360°
2026-05-06 03:02 39.82695 -104.68762 6130 ft 151 kts 360°
2026-05-06 03:02 39.83745 -104.68750 5929 ft 150 kts 360°
2026-05-06 03:02 39.84788 -104.68738 5730 ft 150 kts 360°
2026-05-06 03:02 39.85828 -104.68740 5517 ft 149 kts 359°
2026-05-06 03:03 39.86861 -104.68713 5369 ft 142 kts
2026-05-06 03:03 39.87730 -104.68698 5362 ft 102 kts 359°
2026-05-06 03:03 39.88264 -104.68694 5361 ft 55 kts
2026-05-06 03:03 39.88532 -104.68612 5360 ft 27 kts 29°
2026-05-06 03:04 39.88607 -104.68540 5360 ft 7 kts 75°
2026-05-06 03:04 39.88586 -104.68488 5360 ft 6 kts 145°
2026-05-06 03:04 39.88557 -104.68487 5360 ft 3 kts 183°
2026-05-06 03:04 39.88535 -104.68487 5360 ft 4 kts 176°
2026-05-06 03:05 39.88473 -104.68482 5360 ft 11 kts 178°
2026-05-06 03:05 39.88386 -104.68483 5360 ft 13 kts 181°
2026-05-06 03:05 39.88288 -104.68485 5360 ft 15 kts 180°
2026-05-06 03:05 39.88176 -104.68485 5360 ft 17 kts 180°
2026-05-06 03:06 39.88053 -104.68486 5361 ft 18 kts 181°
2026-05-06 03:06 39.87919 -104.68489 5361 ft 20 kts 180°
2026-05-06 03:06 39.87773 -104.68489 5361 ft 22 kts 180°
2026-05-06 03:06 39.87617 -104.68491 5361 ft 23 kts 181°
2026-05-06 03:07 39.87457 -104.68493 5362 ft 24 kts 180°
2026-05-06 03:07 39.87291 -104.68495 5362 ft 21 kts 181°
2026-05-06 03:07 39.87141 -104.68497 5362 ft 22 kts 180°
2026-05-06 03:07 39.86981 -104.68499 5362 ft 24 kts 180°
2026-05-06 03:08 39.86823 -104.68500 5363 ft 21 kts 181°
2026-05-06 03:08 39.86672 -104.68503 5361 ft 23 kts 180°
2026-05-06 03:08 39.86511 -104.68504 5363 ft 21 kts 180°
2026-05-06 03:08 39.86374 -104.68506 5364 ft 20 kts 180°
2026-05-06 03:09 39.86235 -104.68508 5367 ft 20 kts 180°
2026-05-06 03:09 39.86095 -104.68509 5370 ft 19 kts 180°
2026-05-06 03:09 39.85966 -104.68510 5371 ft 19 kts 180°
2026-05-06 03:09 39.85825 -104.68512 5371 ft 21 kts 181°
2026-05-06 03:10 39.85717 -104.68510 5371 ft 12 kts 168°
2026-05-06 03:10 39.85688 -104.68434 5373 ft 8 kts 96°
2026-05-06 03:10 39.85687 -104.68378 5374 ft 4 kts 90°
2026-05-06 03:10 39.85686 -104.68333 5376 ft 11 kts 90°
2026-05-06 03:11 39.85688 -104.68246 5379 ft 15 kts 82°
2026-05-06 03:11 39.85721 -104.68114 5380 ft 16 kts 71°
2026-05-06 03:11 39.85735 -104.67967 5380 ft 17 kts 91°
2026-05-06 03:11 39.85734 -104.67804 5380 ft 19 kts 90°
2026-05-06 03:12 39.85733 -104.67621 5380 ft 21 kts 90°
2026-05-06 03:12 39.85731 -104.67453 5380 ft 19 kts 90°
2026-05-06 03:12 39.85729 -104.67279 5380 ft 19 kts 90°
2026-05-06 03:12 39.85729 -104.67101 5380 ft 20 kts 91°
2026-05-06 03:13 39.85733 -104.66982 5380 ft 8 kts 69°
2026-05-06 03:13 39.85773 -104.66952 5380 ft 6 kts
2026-05-06 03:13 39.85805 -104.66952 5380 ft 2 kts 360°
2026-05-06 03:13 39.85811 -104.66952 5380 ft 0 kts 360°
2026-05-06 03:14 39.85812 -104.66952 5380 ft 0 kts 360°